Tracking 35237 objects as of 5-Sep-2026
HD Live streaming from Space Station
objects crossing your sky now

DELTA 1 DEB


10-day predictions


NORAD ID: 7030
Int'l Code: 1973-086W
Launch date: November 6, 1973
Source: United States (US)
Launch site: AIR FORCE WESTERN TEST RANGE (AFWTR)

Note: This is SATELLITE DEBRIS
Your satellite tracking list
Your tracking list is empty




NASA's NSSDC Master Catalog

Two Line Element Set (TLE):
1  7030U 73086W   26247.42784292 -.00000004  00000-0  34529-3 0  9994
2  7030 101.9406 236.0022 0091044  38.4975 117.7375 12.24108749359345
Source of the keplerian elements: AFSPC